Sheringham Point, British Columbia

5:09 AM PDT on September 26, 2017 (GMT -0700)
Sheringham Point

Weather History for CWSP - May, 2014

Change the Weather History Date:

Saturday, May 17, 2014

  Actual Average Record
Temperature  
Mean Temperature 54 °F -  
Max Temperature 56 °F - - ()
Min Temperature 51 °F - - ()
Degree Days  
Heating Degree Days 12    
Growing Degree Days 4 (Base 50)    
Moisture  
Dew Point 48 °F    
Average Humidity 81    
Maximum Humidity 88    
Minimum Humidity 71    
Precipitation  
Precipitation 0.00 in - - ()
Sea Level Pressure  
Sea Level Pressure 29.99 in    
Wind  
Wind Speed 9 mph ()    
Max Wind Speed 22 mph    
Max Gust Speed 20 mph    
T = Trace of Precipitation, MM = Missing Value Source: Averaged Metar Reports

Daily Weather History Graph

Daily Weather History Graph

Search for Another Location

Airport or City:

Trip Planner

Search our weather history database for the weather conditions in past years. The results will help you decide how hot, cold, wet, or windy it might be!

Date:

Astronomy

May. 17, 2014 Rise Set
Actual Time 5:32 AM PDT 8:52 PM PDT
Civil Twilight 4:55 AM PDT 9:30 PM PDT
Nautical Twilight 4:05 AM PDT 10:20 PM PDT
Astronomical Twilight 3:01 AM PDT 11:25 PM PDT
Moon 11:54 PM PDT (5/17) 8:22 AM PDT (5/17)
Length of Visible Light 16h 34m
Length of Day
15h 19m
Waning Gibbous, 88% of the Moon is Illuminated
May 17
Waning Gibbous
May 21
Last Quarter
May 28
New
Jun 5
First Quarter
Jun 12
Full

Hourly Weather History & Observations

Time (PDT) Temp. Dew Point Humidity Pressure Visibility Wind Dir Wind Speed Gust Speed Precip Events Conditions
12:00 AM 55.0 °F 48.6 °F 79% 30.08 in - WNW 10.4 mph - N/A   Unknown
1:00 AM 52.0 °F 48.4 °F 88% 30.08 in - WNW 12.7 mph - N/A   Unknown
2:00 AM 52.7 °F 48.7 °F 86% 30.06 in - WNW 6.9 mph - N/A   Unknown
3:00 AM 52.2 °F 48.6 °F 88% 30.06 in - WNW 8.1 mph - N/A   Unknown
4:00 AM 53.2 °F 48.7 °F 85% 30.04 in - WNW 4.6 mph - N/A   Unknown
5:00 AM 53 °F 48 °F 79% 30.05 in - WNW 4.6 mph - -  
5:00 AM 53.1 °F 48.4 °F 84% 30.05 in - WNW 4.6 mph - N/A   Unknown
6:00 AM 54.0 °F 48.6 °F 82% 30.04 in - WNW 5.8 mph - N/A   Unknown
7:00 AM 54.3 °F 48.7 °F 81% 30.03 in - WNW 8.1 mph - N/A   Unknown
8:00 AM 52.7 °F 48.7 °F 86% 30.02 in - WNW 9.2 mph - N/A   Unknown
9:00 AM 52.9 °F 48.0 °F 84% 30.02 in - WNW 9.2 mph - N/A   Unknown
10:00 AM 52.3 °F 48.4 °F 86% 30.01 in - WNW 12.7 mph - N/A   Unknown
11:00 AM 53 °F 49 °F 80% 30.00 in - WNW 10.4 mph - -  
11:00 AM 52.9 °F 48.6 °F 85% 30.00 in - WNW 10.4 mph - N/A   Unknown
12:00 PM 53.6 °F 48.2 °F 82% 29.99 in - WNW 15.0 mph - N/A   Unknown
1:00 PM 53.6 °F 47.1 °F 79% 29.99 in - WNW 16.1 mph - N/A   Unknown
2:00 PM 55.0 °F 47.5 °F 76% 29.97 in - WNW 19.6 mph - N/A   Unknown
3:00 PM 54.0 °F 47.7 °F 79% 29.95 in - WNW 21.9 mph - N/A   Unknown
4:00 PM 55.2 °F 48.6 °F 78% 29.94 in - WNW 20.7 mph - N/A   Unknown
6:00 PM 55.6 °F 47.8 °F 75% 29.91 in - WNW 21.9 mph - N/A   Unknown
7:00 PM 54.0 °F 45.5 °F 73% 29.91 in - WNW 20.7 mph - N/A   Unknown
8:00 PM 54.7 °F 47.5 °F 77% 29.91 in - WNW 13.8 mph 19.6 mph N/A   Unknown
9:00 PM 54.7 °F 47.7 °F 77% 29.91 in - WNW 10.4 mph - N/A   Unknown
11:00 PM 52 °F 46 °F 71% 29.89 in - Calm Calm - -  
11:00 PM 52.2 °F 45.5 °F 78% 29.89 in - Calm Calm - N/A   Unknown